Location: Austin
(30.3000°N, 97.7500°W)
Time: 22:09:58
(UTC-06:00)

Atlas Centaur 2 - Pass Details

Date: 03 December 2025
Orbit: 456 x 1250 km, 30.4° (Epoch: 07 December)

Event Time Altitude Azimuth Distance (km) Brightness Sun altitude
Exits shadow 03:53:09 43° 107° (ESE) 1,674 3.9 -42.1°
Drops below altitude 10° 03:58:18 10° 103° (ESE) 3,216 5.8 -41.0°
Sets 04:01:14 0° 103° (ESE) 4,171 6.7 -40.4°
